Terug naar catalogus

FENGYUN 1C DEB

ActiefSSO
NORAD 31362·DEBRIS·🇨🇳 China

Gelanceerd May 10, 1999 vanaf Taiyuan Satellite Launch Center

Loading…

Volgende Passages (komende 24 uur)

TLE

VersSource: Space-Track

Epoch: Sep 14, 2026, 04:58 UTC

1 31362U 99025BRS 26257.20720617  .00000143  00000-0  91322-4 0  9996
2 31362  98.6701 249.6159 0018810  28.0332 332.1852 14.17542921  4688

Volg FENGYUN 1C DEB in realtime met AllMySat

Download on the App Store